Showing default

LEGION 4, 60453

Orbit data source: Space-Track

LEGION 4, 60453 is a payload satellite owned by Maxar Intel (US) in LEO that was launched on Thu, 15 Aug 2024 UTC via an FALCON 9 launch vehicle from the Air Force Eastern Test Range (AFETR). Payload-class satellites include a variety of spacecraft equipped with specific instruments for various scientific and technological missions. These include communications satellites like Starlink; space stations such as the ISS; scientific satellites like the Hubble; Earth observation satellites from companies like Planet Labs, Umbra, and HawkEye 360; GPS; miniature CubeSats for education and research; and military/defense satellites.

Loading next visibility...
Identifier
60453, 2024-146B
Orbit
LEO
Country
Flag of USUS
Related business
Manufacturer
Maxar Space Inf
Mission
Operational Commercial Imaging
Bus & Motor
LEGION, Unknown motor
Mass
~700 kg wet, 630 kg dry
Launch date (UTC)
2024-08-15 (2 years ago)
Launch vehicle
FALCON 9
Launch site
Air Force Eastern Test Range (AFETR)
Object type
Payload
Rocket body
Debris
Shape & HBR
Box + 1 Pan, 1.5 m
Radar Cross Section
9.079 m², Large (>1 m²)

Expand to show TLE details & history
Last TLE update: 7 hours ago

TLE from 7 hours ago
0 LEGION 4
1 60453U 24146B   26061.82325295  .00006827  00000-0  36127-3 0  9991
2 60453  45.0042 332.5927 0009668  60.8375 299.3470 15.16110814 84738
Epoch: 2026-03-02T19:45Z
TLE epoch observation values (Epoch: 2026-03-02T19:45:29.054Z)
Latitude
-0.00004°
Longitude
-124.38954°
Altitude
514.345 km
Speed
7.61 km/s
True Right ascension
22h 10m 22s
True Declination
0° 00' 00"
Sunlit
Object was in daylight at epoch
Visualization orbit readout
Latitude
Unknown
Longitude
Unknown
Altitude
Unknown
Speed
Unknown
Apparent Right ascension
Unknown
Apparent Declination
Unknown
Sunlit
N/A
Visualization observer readout
Local Sidereal Time
06:53:34
Azimuth
Unknown
Elevation
Unknown
Doppler factor
Unknown
Orbital elements
Apogee altitude
525.877 km
Perigee altitude
512.54 km
Semi-major axis
6,897.346 km
Eccentricity
0.00097
Inclination
45.0042°
RAAN
332.5927°
Arg. of periapsis
60.8375°
True anomaly
299.25037°
Mean anomaly
299.347°
Eccentric anomaly
299.29869°
Mean motion
3.78896 °/min
Orbital period
95.01 mins
BSTAR
0.00036127
Loading maneuver chart data...
Computing Atmospheric mass density...
Loading historical data...
Loading historical data...
Loading historical data...
Loading historical data...
Loading historical data...
Loading historical data...
Loading historical data...
Other satellites on launch #146 in the year 2024 (2024-08-15 UTC)

Documentation

Showing up to 5 results
|